User: anonymous   Login
Location: Auckland
(36.8670°S, 174.7670°E)
Time: 16:42:21
(UTC+13:00)
Language:

COSMOS 2428 - Orbit

View from above orbital plane
View from above orbital plane
View from above satellite
View from above satellite

Ground track
Ground track

The orbit data is extracted from the following two-line orbital elements,

1 31792U 07029A   19290.58063701 -.00000228  00000-0 -97507-4 0  9997
2 31792  70.9342  64.8686 0007517  59.0924 301.0935 14.12429025634437
Epoch (UTC): 17 October 2019 13:56:07
Eccentricity: 0.0007517
inclination: 70.9342°
perigee height: 845 km
apogee height: 856 km
right ascension of ascending node: 64.8686°
argument of perigee: 59.0924°
revolutions per day: 14.12429025
mean anomaly at epoch: 301.0935°
orbit number at epoch: 63443

The dashed part of the orbit path shows where the satellite is in the earth's shadow,  

DLR